User: anonymous   Login
Location: Unspecified
(0.0000°N, 0.0000°E)
Time: 09:05:55
(UTC+00:00)
Language:

Orizuru - Orbit

View from above orbital plane
View from above orbital plane
View from above satellite
View from above satellite

Ground track
Ground track

The orbit data is extracted from the following two-line orbital elements,

1 20479U 90013B   18020.26420191 -.00000004 +00000-0 +70676-4 0  9996
2 20479 099.0713 121.3126 0538499 249.7480 119.4903 12.83841457309610
Epoch (UTC): 20 January 2018 06:20:27
Eccentricity: 0.0538499
inclination: 99.0713°
perigee height: 911 km
apogee height: 1741 km
right ascension of ascending node: 121.3126°
argument of perigee: 249.7480°
revolutions per day: 12.83841457
mean anomaly at epoch: 119.4903°
orbit number at epoch: 30961

The dashed part of the orbit path shows where the satellite is in the earth's shadow,  

DLR